STARLINK-35038 (65482 NORAD) Tracking and Keplerian Element Data

This shows tracking and keplerian element data for the satellite.

Feedback or suggestion? Click here.




ElementValue
Catalog65482
NameSTARLINK-35038
Epoch Orbit1777
Epoch Day354.01731356
Epoch Year2025
RAAN268.3595
Inclination53.1608
Eccentricity0.0001357
Argument of Perigee88.9106
Mean Anonmoly271.2051
Mean Motion15.30204704
Decay Rate0.00018961
L11 65482U 25195AA 25354.01731356 .00018961 00000+0 65056-3 0 9991
L22 65482 53.1608 268.3595 0001357 88.9106 271.2051 15.30204704 17772



Live tracking and technical data element details for STARLINK-35038 (NORAD 65482). STARLINK-35038 can be tracked NOW for your location showing map with azimuth and elevation plus other details from your city location.







IsCatalogInMostPopularTable: catalog: 65482, numindb: 6
Update: records affected: 1



GetName: 65482 STARLINK-35038

Hit Count: updated at: Sat, 11 Apr 2026 21:25:32 GMT